Central Park, NY

11:10 PM EDT on July 24, 2017 (GMT -0400)
Central Park

Weather History for KNYC - January, 2013

Change the Weather History Date:

Sunday, January 6, 2013

  Actual Average Record
Temperature  
Mean Temperature 40 °F 33 °F  
Max Temperature 46 °F 38 °F 72 °F (2007)
Min Temperature 34 °F 27 °F -2 °F (1896)
Degree Days  
Heating Degree Days 25 32  
Month to date heating degree days 190 192  
Since 1 July heating degree days 1780 1877  
Cooling Degree Days 0 0  
Month to date cooling degree days 0 0  
Year to date cooling degree days 0 0  
Moisture  
Dew Point 27 °F    
Average Humidity 67    
Maximum Humidity 89    
Minimum Humidity 45    
Precipitation  
Precipitation T in 0.13 in 1.65 in (1873)
Month to date precipitation T 0.73  
Year to date precipitation T 0.73  
Snow  
Snow T in 0.20 in 5.00 in (1989)
Month to date snowfall T 1.2  
Since 1 July snowfall 5.1 6.3  
Snow Depth 0.00 in    
Sea Level Pressure  
Sea Level Pressure 30.08 in    
Wind  
Wind Speed 7 mph (WSW)    
Max Wind Speed 13 mph    
Max Gust Speed 20 mph    
Visibility 8 miles    
Events      
T = Trace of Precipitation, MM = Missing Value Source: NWS Daily Summary

Daily Weather History Graph

Daily Weather History Graph

Search for Another Location

Airport or City:

Trip Planner

Search our weather history database for the weather conditions in past years. The results will help you decide how hot, cold, wet, or windy it might be!

Date:

Astronomy

Jan. 06, 2013 Rise Set
Actual Time 7:20 AM EST 4:43 PM EST
Civil Twilight 6:49 AM EST 5:14 PM EST
Nautical Twilight 6:15 AM EST 5:48 PM EST
Astronomical Twilight 5:42 AM EST 6:21 PM EST
Moon 1:30 AM EST (1/6) 12:10 PM EST (1/6)
Length of Visible Light 10h 24m
Length of Day
9h 23m
Waning Crescent, 33% of the Moon is Illuminated
Jan 6
Waning Crescent
Jan 11
New
Jan 18
First Quarter
Jan 26
Full
Feb 3
Last Quarter

Hourly Weather History & Observations

Time (EST) Temp. Windchill Dew Point Humidity Pressure Visibility Wind Dir Wind Speed Gust Speed Precip Events Conditions
12:51 AM 36.0 °F 33.3 °F 21.9 °F 57% 30.21 in 10.0 mi Variable 3.5 mph - N/A   Partly Cloudy
1:51 AM 36.0 °F 32.1 °F 21.9 °F 57% 30.21 in 10.0 mi WSW 4.6 mph - N/A   Overcast
2:51 AM 35.1 °F - 21.0 °F 57% 30.18 in 7.0 mi North - - N/A   Overcast
3:51 AM 35.1 °F 31.0 °F 21.0 °F 57% 30.15 in 9.0 mi Variable 4.6 mph - N/A   Overcast
4:51 AM 34.0 °F 28.0 °F 26.1 °F 73% 30.13 in 7.0 mi WSW 6.9 mph - 0.00 in   Overcast
5:34 AM 34.0 °F 31.0 °F 27.0 °F 75% 30.15 in 7.0 mi WSW 3.5 mph - 0.00 in   Overcast
5:51 AM 34.0 °F 28.0 °F 28.0 °F 79% 30.12 in 8.0 mi WSW 6.9 mph - 0.00 in   Overcast
6:44 AM 35.1 °F 27.9 °F 28.9 °F 78% 30.14 in 9.0 mi West 9.2 mph - N/A   Overcast
6:51 AM 35.1 °F 31.0 °F 30.0 °F 82% 30.12 in 8.0 mi WSW 4.6 mph - N/A   Overcast
7:24 AM 34.0 °F 29.8 °F 30.9 °F 89% 30.13 in 7.0 mi Variable 4.6 mph - N/A   Overcast
7:51 AM 34.0 °F 29.8 °F 30.9 °F 89% 30.12 in 6.0 mi SSW 4.6 mph - N/A   Overcast
8:51 AM 35.1 °F 27.9 °F 30.9 °F 85% 30.11 in 5.0 mi WSW 9.2 mph 19.6 mph N/A   Overcast
9:05 AM 35.1 °F 27.9 °F 30.0 °F 82% 30.12 in 6.0 mi West 9.2 mph 18.4 mph N/A   Haze
9:51 AM 36.0 °F 28.5 °F 30.0 °F 79% 30.11 in 6.0 mi West 10.4 mph 17.3 mph N/A   Haze
10:10 AM 37.0 °F 31.6 °F 30.0 °F 76% 30.12 in 6.0 mi Variable 6.9 mph - N/A   Haze
10:51 AM 37.9 °F 33.5 °F 30.0 °F 73% 30.07 in 5.0 mi WSW 5.8 mph - N/A   Haze
11:51 AM 39.9 °F 33.9 °F 28.9 °F 65% 30.04 in 6.0 mi WSW 9.2 mph - N/A   Haze
12:51 PM 43.0 °F 39.5 °F 28.0 °F 56% 30.00 in 7.0 mi SW 5.8 mph - N/A   Clear
1:51 PM 44.1 °F 38.6 °F 26.1 °F 49% 29.98 in 9.0 mi West 10.4 mph - N/A   Clear
2:51 PM 45.0 °F - 26.1 °F 48% 29.97 in 10.0 mi North - - N/A   Clear
3:51 PM 45.0 °F 42.6 °F 24.1 °F 44% 29.97 in 10.0 mi Variable 4.6 mph - N/A   Clear
4:51 PM 45.0 °F 41.2 °F 24.1 °F 44% 29.98 in 10.0 mi Variable 6.9 mph - N/A   Clear
5:51 PM 43.0 °F 41.3 °F 25.0 °F 49% 30.00 in 10.0 mi Variable 3.5 mph - N/A   Mostly Cloudy
6:51 PM 43.0 °F 38.8 °F 24.1 °F 47% 30.01 in 10.0 mi Variable 6.9 mph 16.1 mph N/A   Overcast
7:51 PM 43.0 °F - 25.0 °F 49% 30.01 in 10.0 mi North - - N/A   Overcast
8:51 PM 42.1 °F 37.7 °F 25.0 °F 51% 30.01 in 10.0 mi WNW 6.9 mph - N/A   Overcast
9:51 PM 42.1 °F 35.2 °F 25.0 °F 51% 30.02 in 10.0 mi WNW 12.7 mph 18.4 mph N/A   Overcast
10:51 PM 41.0 °F 35.8 °F 26.1 °F 55% 30.03 in 10.0 mi WNW 8.1 mph - N/A   Clear
11:51 PM 41.0 °F 35.8 °F 26.1 °F 55% 30.04 in 10.0 mi WNW 8.1 mph - N/A   Mostly Cloudy